Orbital Elements at Epoch 2459200.5 (2020-Dec-17.0) TDB
Reference: JPL 23 (heliocentric ecliptic J2000)
Element | Value | Uncertainty (1-sigma) | Units |
e | .1555348262584729 | 3.7265e-08 | |
a | 2.199423252130701 | 7.3065e-09 | au |
q | 1.857336338741707 | 8.3631e-08 | au |
i | 4.001699590539014 | 3.4637e-06 | deg |
node | 312.3969559302199 | 5.6598e-05 | deg |
peri | 84.60437878647218 | 5.7786e-05 | deg |
M | 218.0590671487027 | 1.1373e-05 | deg |
tp | 2459670.250011430454 (2022-Mar-31.75001143) | 3.8454e-05 | TDB |
period | 1191.411108253948 3.26 | 5.9368e-06 1.625e-08 | d yr |
n | .3021627022830027 | 1.5057e-09 | deg/d |
Q | 2.541510165519695 | 8.4429e-09 | au |
|
| | Orbit Determination Parameters
Additional Information
|